Location: Binningen
(47.7924°N, 8.7261°E)
Time: 00:13:20
(UTC+00:00)

Terra - Pass Details

Date: 03 October 2021
Orbit: 701 x 703 km, 98.2° (Epoch: 24 October)

Event Time Altitude Azimuth Distance (km) Brightness Sun altitude
Exits shadow 20:41:14 14° 2° (N) 1,901 4.4 -35.6°
Drops below altitude 10° 20:41:59 10° 359° (N) 2,181 4.8 -35.7°
Sets 20:44:20 0° 352° (N) 3,104 5.7 -36.0°
